Hourly Data Report for August 04, 2004

All times are specified in Local Standard Time (LST). Add 1 hour to adjust for Daylight Saving Time where and when it is observed.

TORONTO CITY
ONTARIO

43°40'00.000" N
79°24'00.000" W
112.50 m
6158355
71508
XTO

Download Data

Hourly Data (August 2004)
Hourly Data Report for August 4, 2004
TIME Temp Definition
°C
Dew Point Definition
°C
Rel Hum Definition
%
Wind Dir Definition
10's deg

Wind Spd Definition
km/h
Visibility Definition
km
Stn Press Definition
kPa
Hmdx Definition


Wind Chill Definition


Weather Definition


00:00 20.9 18.5 86 LegendMM LegendMM LegendMM 99.65 27   LegendNANA
01:00 20.2 18.3 89 LegendMM LegendMM LegendMM 99.60 26   LegendNANA
02:00 20.1 18.1 88 LegendMM LegendMM LegendMM 99.62 26   LegendNANA
03:00 20.0 18.1 89 LegendMM LegendMM LegendMM 99.62 26   LegendNANA
04:00 20.1 17.8 87 LegendMM LegendMM LegendMM 99.62 26   LegendNANA
05:00 20.3 17.8 86 LegendMM LegendMM LegendMM 99.59 26   LegendNANA
06:00 20.4 17.8 85 LegendMM LegendMM LegendMM 99.59 26   LegendNANA
07:00 20.5 18.2 87 LegendMM LegendMM LegendMM 99.63 27   LegendNANA
08:00 19.9 18.4 91 LegendMM LegendMM LegendMM 99.74     LegendNANA
09:00 20.0 19.1 95 LegendMM LegendMM LegendMM 99.65 27   LegendNANA
10:00 20.3 19.5 95 LegendMM LegendMM LegendMM 99.62 27   LegendNANA
11:00 20.5 19.7 95 LegendMM LegendMM LegendMM 99.62 28   LegendNANA
12:00 19.8 18.5 92 LegendMM LegendMM LegendMM 99.66     LegendNANA
13:00 20.3 17.8 86 LegendMM LegendMM LegendMM 99.69 26   LegendNANA
14:00 19.8 16.6 82 LegendMM LegendMM LegendMM 99.69     LegendNANA
15:00 20.8 15.8 73 LegendMM LegendMM LegendMM 99.65 25   LegendNANA
16:00 22.3 16.2 68 LegendMM LegendMM LegendMM 99.60 27   LegendNANA
17:00 22.6 16.4 68 LegendMM LegendMM LegendMM 99.59 27   LegendNANA
18:00 23.0 16.7 68 LegendMM LegendMM LegendMM 99.60 28   LegendNANA
19:00 22.3 16.1 68 LegendMM LegendMM LegendMM 99.65 27   LegendNANA
20:00 21.6 14.7 65 LegendMM LegendMM LegendMM 99.68 25   LegendNANA
21:00 21.3 14.2 64 LegendMM LegendMM LegendMM 99.73 25   LegendNANA
22:00 20.0 14.6 71 LegendMM LegendMM LegendMM 99.73     LegendNANA
23:00 19.6 14.7 73 LegendMM LegendMM LegendMM 99.73     LegendNANA

Notes on Data Quality.

Legend

  • E = Estimated
  • M = Missing
  • NA = Not Available
Date modified: